FW0958 Weather Reports


Display with metric or nautical units.
time (UTC)temp
F
wind
direction
speed
MPH
gust
MPH
rain 1hr
in
rain 24hr
in
rain mn
in
humidity
%
barometer
mb
20200217195828 69 312 1.0 9.0 0.00 0.00 0.00 51 1012.9
20200217195327 69 328 1.0 6.0 0.00 0.00 0.00 52 1013.0
20200217194828 69 238 2.0 6.0 0.00 0.00 0.00 53 1013.0
20200217194328 69 272 1.0 5.0 0.00 0.00 0.00 53 1013.2
20200217193827 67 357 1.0 5.0 0.00 0.00 0.00 56 1013.2
20200217193327 67 322 2.0 5.0 0.00 0.00 0.00 56 1013.2
20200217192825 67 324 2.0 7.0 0.00 0.00 0.00 56 1013.3
20200217192327 67 233 2.0 7.0 0.00 0.00 0.00 59 1013.4
20200217191827 67 318 2.0 7.0 0.00 0.00 0.00 57 1013.6
20200217191325 67 283 2.0 7.0 0.00 0.00 0.00 59 1013.5
20200217190825 67 236 3.0 7.0 0.00 0.00 0.00 60 1013.6
20200217190325 66 220 2.0 6.0 0.00 0.00 0.00 61 1013.7
20200217185825 67 207 1.0 6.0 0.00 0.00 0.00 61 1013.7
20200217185326 67 234 1.0 3.0 0.00 0.00 0.00 60 1013.8
20200217184824 66 235 2.0 7.0 0.00 0.00 0.00 63 1013.9
20200217184325 65 261 1.0 7.0 0.00 0.00 0.00 63 1014.0
20200217183823 65 261 1.0 4.0 0.00 0.00 0.00 63 1013.9
20200217183325 65 221 1.0 4.0 0.00 0.00 0.00 63 1014.1
20200217182825 64 187 1.0 4.0 0.00 0.00 0.00 62 1014.2
20200217182323 64 151 0.0 3.0 0.00 0.00 0.00 62 1014.4
20200217181825 63 206 0.0 3.0 0.00 0.00 0.00 61 1014.4
20200217181325 63 269 1.0 3.0 0.00 0.00 0.00 61 1014.5
20200217180823 62 221 1.0 3.0 0.00 0.00 0.00 63 1014.6
20200217180324 62 218 0.0 3.0 0.00 0.00 0.00 62 1014.7
20200217175822 61 226 1.0 4.0 0.00 0.00 0.00 63 1014.7
20200217175321 60 228 1.0 4.0 0.00 0.00 0.00 65 1014.7
20200217174821 60 222 1.0 3.0 0.00 0.00 0.00 66 1014.8
20200217174321 60 225 1.0 3.0 0.00 0.00 0.00 67 1014.8
20200217173821 60 359 1.0 3.0 0.00 0.00 0.00 66 1014.8
20200217173321 59 220 2.0 4.0 0.00 0.00 0.00 66 1014.8
20200217172822 58 242 1.0 4.0 0.00 0.00 0.00 68 1014.8
20200217172321 57 236 1.0 3.0 0.00 0.00 0.00 68 1014.9
20200217171823 57 247 0.0 3.0 0.00 0.00 0.00 68 1014.8
20200217171321 56 259 0.0 2.0 0.00 0.00 0.00 70 1014.6
20200217170819 56 259 0.0 2.0 0.00 0.00 0.00 71 1014.7
20200217170318 55 269 1.0 2.0 0.00 0.00 0.00 74 1014.8
20200217165818 54 286 1.0 2.0 0.00 0.00 0.00 75 1015.1
20200217165321 53 287 0.0 2.0 0.00 0.00 0.00 75 1015.0
20200217164820 53 291 0.0 1.0 0.00 0.00 0.00 75 1015.0
20200217164319 52 291 0.0 1.0 0.00 0.00 0.00 76 1015.0
20200217163821 51 291 0.0 2.0 0.00 0.00 0.00 76 1014.9
20200217163319 51 291 0.0 2.0 0.00 0.00 0.00 77 1014.9
20200217162819 50 291 0.0 2.0 0.00 0.00 0.00 78 1014.8
20200217162320 49 291 0.0 1.0 0.00 0.00 0.00 80 1014.7
20200217161817 49 291 0.0 1.0 0.00 0.00 0.00 83 1014.7
20200217161317 49 291 0.0 1.0 0.00 0.00 0.00 85 1014.5
20200217160817 48 291 0.0 1.0 0.00 0.00 0.00 87 1014.7
20200217160318 48 291 0.0 1.0 0.00 0.00 0.00 90 1014.6
20200217155818 47 291 0.0 0.0 0.00 0.00 0.00 91 1014.7
20200217155317 46 291 0.0 0.0 0.00 0.00 0.00 93 1014.5
20200217154817 45 291 0.0 1.0 0.00 0.00 0.00 93 1014.4
20200217154318 44 291 0.0 1.0 0.00 0.00 0.00 94 1014.5
20200217153818 44 291 0.0 1.0 0.00 0.00 0.00 94 1014.4
20200217153316 43 291 0.0 1.0 0.00 0.00 0.00 94 1014.4
20200217152816 43 291 0.0 1.0 0.00 0.00 0.00 94 1014.1
20200217152315 42 291 0.0 1.0 0.00 0.00 0.00 94 1014.1
20200217151816 42 291 0.0 0.0 0.00 0.00 0.00 94 1014.0
20200217151314 41 291 0.0 0.0 0.00 0.00 0.00 94 1014.1
20200217150816 40 291 0.0 0.0 0.00 0.00 0.00 94 1014.1
20200217150316 40 291 0.0 0.0 0.00 0.00 0.00 94 1014.1
20200217145816 40 291 0.0 0.0 0.00 0.01 0.00 94 1014.1
20200217145314 40 291 0.0 1.0 0.00 0.01 0.00 94 1014.0
20200217144814 39 291 0.0 1.0 0.00 0.01 0.00 93 1014.2
20200217144314 39 291 0.0 1.0 0.00 0.01 0.00 94 1014.1
20200217143813 39 291 0.0 1.0 0.00 0.01 0.00 93 1014.1
20200217143314 40 291 0.0 1.0 0.00 0.01 0.00 93 1014.0
20200217142813 40 291 0.0 1.0 0.00 0.01 0.00 93 1013.9
20200217142314 40 291 0.0 0.0 0.00 0.01 0.00 93 1013.8
20200217141812 40 291 0.0 0.0 0.00 0.01 0.00 93 1013.7
20200217141313 41 291 0.0 1.0 0.00 0.01 0.00 93 1013.9
20200217140813 41 291 0.0 1.0 0.00 0.01 0.00 93 1013.9
20200217140313 40 291 0.0 1.0 0.00 0.01 0.00 93 1013.8
20200217135813 41 291 0.0 1.0 0.00 0.01 0.00 93 1013.9
20200217135312 41 291 0.0 0.0 0.00 0.01 0.00 93 1014.0
20200217134813 40 291 0.0 0.0 0.00 0.01 0.00 93 1014.1
20200217134312 41 291 0.0 0.0 0.00 0.01 0.00 93 1014.1
20200217133813 41 291 0.0 0.0 0.00 0.01 0.00 93 1014.1
20200217133313 41 291 0.0 0.0 0.00 0.01 0.00 93 1014.2
20200217132814 40 291 0.0 0.0 0.00 0.01 0.00 93 1014.1
20200217132313 40 291 0.0 0.0 0.00 0.01 0.00 93 1014.1
20200217131814 40 291 0.0 0.0 0.00 0.01 0.00 92 1014.2
20200217131312 40 291 0.0 0.0 0.00 0.01 0.00 93 1014.0
20200217130812 40 291 0.0 0.0 0.00 0.01 0.00 93 1014.1
20200217130311 40 291 0.0 0.0 0.00 0.01 0.00 93 1014.1
20200217125810 40 291 0.0 0.0 0.00 0.01 0.00 93 1014.1
20200217125310 40 291 0.0 0.0 0.00 0.01 0.00 93 1014.2
20200217124810 40 291 0.0 0.0 0.00 0.01 0.00 92 1014.2
20200217124309 40 291 0.0 0.0 0.00 0.01 0.00 92 1014.2
20200217123808 40 291 0.0 0.0 0.00 0.01 0.00 92 1014.2
20200217123309 41 291 0.0 0.0 0.00 0.01 0.00 92 1014.2
20200217122809 41 291 0.0 0.0 0.00 0.01 0.00 92 1014.2
20200217122309 41 291 0.0 0.0 0.00 0.01 0.00 92 1014.1
20200217121810 41 291 0.0 1.0 0.00 0.01 0.00 92 1014.2
20200217121308 41 291 0.0 1.0 0.00 0.01 0.00 92 1014.2
20200217120809 42 291 0.0 0.0 0.00 0.01 0.00 92 1014.2
20200217120306 42 291 0.0 0.0 0.00 0.01 0.00 92 1014.1
20200217115805 42 291 0.0 0.0 0.00 0.01 0.00 92 1014.4
20200217115305 42 291 0.0 0.0 0.00 0.01 0.00 92 1014.2
20200217114803 42 291 0.0 0.0 0.00 0.01 0.00 92 1014.4
20200217114302 42 291 0.0 0.0 0.00 0.01 0.00 92 1014.4
20200217113802 42 291 0.0 0.0 0.00 0.01 0.00 92 1014.4
20200217113303 42 291 0.0 0.0 0.00 0.01 0.00 92 1014.5
20200217112804 43 291 0.0 0.0 0.00 0.01 0.00 92 1014.6
20200217112302 43 291 0.0 0.0 0.00 0.01 0.00 92 1014.7
20200217111802 43 291 0.0 0.0 0.00 0.01 0.00 92 1014.7
20200217111302 43 291 0.0 0.0 0.00 0.01 0.00 92 1014.8
20200217110803 43 291 0.0 0.0 0.00 0.01 0.00 92 1014.9
20200217110302 43 291 0.0 0.0 0.00 0.01 0.00 92 1014.9
20200217105800 43 291 0.0 0.0 0.00 0.01 0.00 92 1014.9
20200217105301 43 291 0.0 0.0 0.00 0.01 0.00 92 1015.0
20200217104800 43 291 0.0 0.0 0.00 0.01 0.00 92 1015.1
20200217104302 43 291 0.0 0.0 0.00 0.01 0.00 92 1015.1
20200217103759 43 291 0.0 0.0 0.00 0.01 0.00 92 1015.1
20200217103300 43 291 0.0 0.0 0.00 0.01 0.00 92 1015.2
20200217102800 44 291 0.0 0.0 0.00 0.01 0.00 92 1015.1
20200217102300 44 291 0.0 0.0 0.00 0.01 0.00 92 1015.2
20200217101801 44 291 0.0 0.0 0.00 0.01 0.00 92 1015.1
20200217101301 44 291 0.0 0.0 0.00 0.01 0.00 92 1015.2
20200217100759 44 291 0.0 0.0 0.00 0.01 0.00 91 1015.2
20200217100259 44 291 0.0 0.0 0.00 0.01 0.00 92 1015.2
20200217095758 44 291 0.0 0.0 0.00 0.01 0.00 91 1015.2
20200217095258 44 291 0.0 0.0 0.00 0.01 0.00 91 1015.3
20200217094758 44 291 0.0 0.0 0.00 0.01 0.00 91 1015.3
20200217094258 44 291 0.0 0.0 0.00 0.01 0.00 91 1015.3
20200217093759 44 291 0.0 0.0 0.00 0.01 0.00 91 1015.4
20200217093258 44 291 0.0 0.0 0.00 0.01 0.00 91 1015.4
20200217092758 45 291 0.0 0.0 0.00 0.01 0.00 91 1015.4
20200217092259 45 291 0.0 0.0 0.00 0.01 0.00 91 1015.4
20200217091756 45 291 0.0 0.0 0.00 0.01 0.00 91 1015.3
20200217091257 45 291 0.0 0.0 0.00 0.01 0.00 91 1015.4
20200217090755 45 291 0.0 0.0 0.00 0.01 0.00 91 1015.4
20200217090257 45 291 0.0 0.0 0.00 0.01 0.00 91 1015.4
20200217085757 45 291 0.0 0.0 0.00 0.01 0.00 91 1015.4
20200217085257 45 291 0.0 0.0 0.00 0.01 0.00 91 1015.4
20200217084757 46 291 0.0 0.0 0.00 0.01 0.00 91 1015.5
20200217084256 46 291 0.0 0.0 0.00 0.01 0.00 91 1015.4
20200217083755 46 291 0.0 1.0 0.00 0.01 0.00 91 1015.4
20200217083256 46 291 0.0 1.0 0.00 0.01 0.00 90 1015.4
20200217082754 46 291 0.0 0.0 0.00 0.01 0.00 90 1015.4
20200217082255 46 291 0.0 0.0 0.00 0.01 0.00 90 1015.5
20200217081752 46 291 0.0 0.0 0.00 0.01 0.00 90 1015.5
20200217081251 46 291 0.0 0.0 0.00 0.01 0.00 90 1015.5
20200217080753 47 291 0.0 0.0 0.00 0.01 0.00 90 1015.6
20200217080252 47 291 0.0 0.0 0.00 0.01 0.00 90 1015.7
20200217075751 47 291 0.0 0.0 0.00 0.01 0.01 90 1015.7
20200217075252 47 291 0.0 0.0 0.00 0.01 0.01 90 1015.7
20200217074751 47 291 0.0 0.0 0.00 0.01 0.01 89 1015.7
20200217074252 47 291 0.0 0.0 0.00 0.01 0.01 89 1015.6
20200217073751 47 291 0.0 0.0 0.00 0.01 0.01 89 1015.5
20200217073251 48 291 0.0 0.0 0.00 0.01 0.01 89 1015.6
20200217072752 48 291 0.0 0.0 0.00 0.01 0.01 89 1015.6
20200217072251 48 291 0.0 0.0 0.00 0.01 0.01 90 1015.6
20200217071752 48 291 0.0 0.0 0.00 0.01 0.01 90 1015.6
20200217071251 48 291 0.0 1.0 0.00 0.01 0.01 90 1015.6
20200217070749 48 291 0.0 1.0 0.00 0.01 0.01 89 1015.7
20200217070249 48 291 0.0 0.0 0.00 0.01 0.01 89 1015.7
20200217065749 48 291 0.0 0.0 0.00 0.01 0.01 89 1015.6
20200217065249 49 291 0.0 0.0 0.00 0.01 0.01 89 1015.6
20200217064749 49 291 0.0 0.0 0.00 0.01 0.01 89 1015.6
20200217064248 49 291 0.0 0.0 0.00 0.01 0.01 89 1015.7
20200217063749 49 291 0.0 0.0 0.00 0.01 0.01 89 1015.8
20200217063249 49 291 0.0 0.0 0.00 0.01 0.01 89 1015.8
20200217062749 49 291 0.0 0.0 0.00 0.01 0.01 89 1015.6
20200217062248 49 291 0.0 0.0 0.00 0.01 0.01 89 1015.7
20200217061747 50 291 0.0 0.0 0.00 0.01 0.01 89 1015.7
20200217061248 50 291 0.0 0.0 0.00 0.01 0.01 89 1015.6
20200217060748 49 291 0.0 1.0 0.00 0.01 0.01 88 1015.7
20200217060247 50 291 0.0 1.0 0.00 0.01 0.01 88 1015.8
20200217055747 50 291 0.0 1.0 0.00 0.01 0.01 89 1015.9
20200217055247 50 291 0.0 1.0 0.00 0.01 0.01 88 1015.8
20200217054746 50 291 0.0 0.0 0.00 0.01 0.01 88 1015.8
20200217054247 50 291 0.0 0.0 0.00 0.01 0.01 87 1015.8
20200217053748 51 291 0.0 0.0 0.00 0.01 0.01 87 1015.7
20200217053248 51 291 0.0 1.0 0.00 0.01 0.01 88 1015.8
20200217052745 51 291 0.0 1.0 0.00 0.01 0.01 87 1015.7
20200217052246 51 291 0.0 0.0 0.00 0.01 0.01 87 1015.8
20200217051744 51 291 0.0 0.0 0.00 0.01 0.01 86 1015.9
20200217051244 51 291 0.0 0.0 0.00 0.01 0.01 86 1016.0
20200217050750 52 291 0.0 0.0 0.00 0.01 0.01 86 1016.1
20200217050746 51 291 0.0 0.0 0.00 0.01 0.01 86 1016.0
20200217045745 52 291 0.0 0.0 0.00 0.01 0.01 86 1016.0
20200217045244 52 291 0.0 1.0 0.00 0.01 0.01 85 1015.9
20200217044745 52 291 0.0 1.0 0.00 0.01 0.01 85 1015.9
20200217044244 53 291 0.0 1.0 0.00 0.01 0.01 86 1015.9
20200217043746 53 291 0.0 1.0 0.00 0.01 0.01 85 1015.8
20200217043245 53 291 0.0 0.0 0.00 0.01 0.01 85 1015.8
20200217042745 53 291 0.0 0.0 0.00 0.01 0.01 86 1015.9
20200217042246 53 291 0.0 0.0 0.00 0.01 0.01 86 1015.9
20200217041744 52 291 0.0 0.0 0.00 0.01 0.01 85 1015.8
20200217041245 53 291 0.0 0.0 0.00 0.01 0.01 85 1016.0
20200217040744 53 291 0.0 0.0 0.00 0.01 0.01 84 1015.8
20200217040244 53 291 0.0 0.0 0.00 0.01 0.01 83 1015.7
20200217035745 54 291 0.0 0.0 0.00 0.01 0.01 83 1015.8
20200217035244 54 291 0.0 0.0 0.00 0.01 0.01 83 1015.9
20200217034746 54 291 0.0 0.0 0.00 0.01 0.01 82 1016.0
20200217034246 55 291 0.0 0.0 0.00 0.01 0.01 82 1015.9
20200217033745 55 291 0.0 0.0 0.00 0.01 0.01 82 1015.9
20200217033244 56 291 0.0 0.0 0.00 0.01 0.01 81 1016.0
20200217032744 56 291 0.0 0.0 0.00 0.01 0.01 81 1016.1
20200217032244 56 291 0.0 0.0 0.00 0.01 0.01 81 1016.0
20200217031744 56 291 0.0 0.0 0.00 0.01 0.01 80 1016.0
20200217031246 56 291 0.0 0.0 0.00 0.01 0.01 80 1015.9
20200217030743 56 291 0.0 0.0 0.00 0.01 0.01 80 1016.0
20200217030242 56 291 0.0 0.0 0.00 0.01 0.01 80 1016.1
20200217025742 56 291 0.0 0.0 0.00 0.01 0.01 80 1016.1
20200217025242 56 291 0.0 0.0 0.00 0.01 0.01 79 1016.2
20200217024742 57 291 0.0 0.0 0.00 0.01 0.01 78 1016.2
20200217024244 57 291 0.0 0.0 0.00 0.01 0.01 77 1016.3
20200217023742 57 291 0.0 0.0 0.00 0.01 0.01 77 1016.2
20200217023242 57 291 0.0 1.0 0.00 0.01 0.01 77 1016.1
20200217022742 57 291 0.0 1.0 0.00 0.01 0.01 77 1016.1
20200217022241 58 291 0.0 0.0 0.00 0.01 0.01 76 1016.1
20200217021740 58 291 0.0 0.0 0.00 0.01 0.01 76 1016.1
20200217021241 58 291 0.0 1.0 0.00 0.01 0.01 77 1016.0
20200217020741 58 291 0.0 2.0 0.00 0.01 0.01 76 1016.0
20200217020241 58 291 0.0 2.0 0.00 0.01 0.01 76 1015.9
20200217015740 59 291 0.0 1.0 0.00 0.01 0.01 76 1016.0
20200217015242 59 291 0.0 1.0 0.00 0.01 0.01 76 1016.0
20200217014740 59 291 0.0 1.0 0.00 0.01 0.01 75 1016.0
20200217014238 60 287 1.0 3.0 0.00 0.01 0.01 75 1016.0
20200217013738 60 287 1.0 4.0 0.00 0.01 0.01 74 1016.1
20200217013238 60 295 1.0 4.0 0.00 0.01 0.01 73 1016.0
20200217012744 61 315 1.0 5.0 0.00 0.01 0.01 70 1015.9
20200217012738 60 305 1.0 5.0 0.00 0.01 0.01 72 1015.9
20200217011736 61 259 1.0 4.0 0.00 0.01 0.01 69 1016.0
20200217011234 62 270 1.0 4.0 0.00 0.01 0.01 67 1016.0
20200217010735 62 272 1.0 4.0 0.00 0.01 0.01 65 1016.0
20200217010235 62 241 1.0 6.0 0.00 0.01 0.01 62 1016.0
20200217005735 63 224 2.0 6.0 0.00 0.01 0.01 61 1016.0
20200217005234 63 242 2.0 6.0 0.00 0.01 0.01 59 1016.0
20200217004733 64 246 2.0 6.0 0.00 0.01 0.01 59 1015.9
20200217004233 64 263 1.0 5.0 0.00 0.01 0.01 56 1015.9
20200217003732 64 266 2.0 6.0 0.00 0.01 0.01 54 1015.8
20200217003233 64 262 3.0 8.0 0.00 0.01 0.01 52 1015.9
20200217002733 65 329 3.0 8.0 0.00 0.01 0.01 50 1015.9
20200217002232 65 314 2.0 6.0 0.00 0.01 0.01 56 1016.0
20200217001731 65 253 3.0 6.0 0.00 0.01 0.01 55 1015.8
20200217001232 65 16 3.0 8.0 0.00 0.01 0.01 53 1015.9
20200217000732 65 320 3.0 8.0 0.00 0.01 0.01 55 1016.1
20200217000232 66 324 3.0 7.0 0.00 0.01 0.01 55 1016.2
20200216235730 67 309 3.0 8.0 0.00 0.01 0.01 55 1016.1
20200216235231 67 329 2.0 8.0 0.00 0.01 0.01 51 1016.2
20200216234730 68 263 2.0 5.0 0.00 0.01 0.01 52 1016.0
20200216234231 68 237 2.0 8.0 0.00 0.01 0.01 56 1016.1
20200216233731 68 327 2.0 8.0 0.00 0.01 0.01 54 1016.2
20200216233230 69 265 2.0 7.0 0.00 0.01 0.01 54 1016.1
20200216232729 69 277 3.0 7.0 0.00 0.01 0.01 55 1016.2
20200216232230 69 239 3.0 7.0 0.00 0.01 0.01 53 1016.1
20200216231731 69 249 3.0 7.0 0.00 0.01 0.01 51 1016.0
20200216231230 70 261 3.0 8.0 0.00 0.01 0.01 50 1016.0
20200216230727 69 282 4.0 9.0 0.00 0.01 0.01 51 1016.0
20200216230227 70 224 3.0 9.0 0.00 0.01 0.01 48 1016.0
20200216225728 71 313 3.0 8.0 0.00 0.01 0.01 43 1016.0
20200216225227 71 255 3.0 9.0 0.00 0.01 0.01 40 1016.0
20200216224727 71 226 4.0 10.0 0.00 0.01 0.01 39 1015.9
20200216224226 71 230 4.0 10.0 0.00 0.01 0.01 41 1015.8
20200216223726 72 238 3.0 8.0 0.00 0.01 0.01 43 1015.9
20200216223226 72 237 3.0 8.0 0.00 0.01 0.01 46 1015.8
20200216222723 71 269 3.0 9.0 0.00 0.01 0.01 44 1015.8
20200216222225 72 253 3.0 9.0 0.00 0.01 0.01 44 1015.8
20200216221723 72 286 3.0 9.0 0.00 0.01 0.01 43 1015.7
20200216221223 73 250 3.0 9.0 0.00 0.01 0.01 44 1015.7
20200216220725 73 293 3.0 9.0 0.00 0.01 0.01 42 1015.6
20200216220223 73 271 3.0 9.0 0.00 0.01 0.01 39 1015.8
20200216215724 73 251 3.0 8.0 0.00 0.01 0.01 39 1015.6
20200216215226 73 301 4.0 9.0 0.00 0.01 0.01 39 1015.7
20200216214724 73 259 3.0 9.0 0.00 0.01 0.01 40 1015.8
20200216214225 72 286 3.0 8.0 0.00 0.01 0.01 42 1015.8
20200216213725 73 269 3.0 9.0 0.00 0.01 0.01 42 1016.0
20200216213225 73 205 4.0 9.0 0.00 0.01 0.01 43 1015.9
20200216212725 73 266 3.0 10.0 0.00 0.01 0.01 45 1016.0
20200216212225 73 237 3.0 10.0 0.00 0.01 0.01 44 1016.0
20200216211725 73 203 3.0 9.0 0.00 0.01 0.01 44 1016.2
20200216211224 74 264 2.0 9.0 0.00 0.01 0.01 41 1016.2
20200216210723 74 267 2.0 7.0 0.00 0.01 0.01 40 1016.3
20200216210223 73 251 3.0 7.0 0.00 0.01 0.01 42 1016.5
20200216205725 74 259 3.0 8.0 0.00 0.01 0.01 41 1016.5
20200216205224 73 261 3.0 8.0 0.00 0.01 0.01 40 1016.5
20200216204724 74 326 3.0 8.0 0.00 0.01 0.01 38 1016.6
20200216204225 73 230 3.0 7.0 0.00 0.01 0.01 40 1016.7
20200216203724 74 218 3.0 7.0 0.00 0.01 0.01 37 1016.7
20200216203225 74 251 2.0 9.0 0.00 0.01 0.01 37 1016.9
20200216202724 74 231 3.0 9.0 0.00 0.01 0.01 37 1017.0
20200216202223 74 318 3.0 8.0 0.00 0.01 0.01 34 1017.1
20200216201722 74 226 2.0 7.0 0.00 0.01 0.01 37 1017.1
20200216201223 73 250 2.0 7.0 0.00 0.01 0.01 37 1017.3
20200216200721 72 218 1.0 5.0 0.00 0.01 0.01 39 1017.4
20200216200221 71 226 1.0 4.0 0.00 0.01 0.01 40 1017.5